Torna al catalogo

ONEWEB-0313

AttivoComunicazioniPO
NORAD 49099·PAYLOAD·🇬🇧 United Kingdom

Lanciato Aug 21, 2021 da Baikonur Cosmodrome

Loading…

Prossimi Passaggi (prossime 24 ore)

TLE

AggiornatoSource: CelesTrak SupGP

Epoca: Sep 14, 2026, 17:51 UTC

1 49099C 21075AA  26257.74391620  .00001800  00000+0  46429-2 0  2572
2 49099  87.9198 348.0918 0001904 106.5716   4.1653 13.17647464    11

Traccia ONEWEB-0313 in tempo reale con AllMySat

Download on the App Store